Simultaneous Nadir Overpasses (SNOs) Predictions

Prediction of SNOs between NOAA-19 and NPP Satellite Orbit:

Table of predicted SNOs for the next 14.0 days since TLE Epoch: 12/12/2020
Index Date (NOAA-19) Time (NOAA-19) Lat,Lon (NOAA-19) SZA (NOAA-19 ) Date (NPP) Time (NPP) Lat,Lon (NPP) SZA (NPP ) Distance(km) Time Diff (sec)
1 12/19/2020 00:06:48 78.76, 148.50 103.44 12/19/2020 00:08:02 78.81, 148.75 103.43 7.14 74
2 12/19/2020 00:57:48 -78.80, -43.99 76.55 12/19/2020 00:58:47 -78.82, -44.05 76.55 3.05 59
3 12/19/2020 01:48:47 78.81, 123.37 103.46 12/19/2020 01:49:32 78.81, 123.35 103.44 0.53 45
4 12/19/2020 02:39:48 -78.81, -69.37 76.55 12/19/2020 02:40:17 -78.82, -69.44 76.54 2.02 29
5 12/19/2020 03:30:47 78.83, 97.99 103.46 12/19/2020 03:31:02 78.81, 97.96 103.45 1.87 15
6 12/19/2020 04:21:48 -78.83, -94.76 76.54 12/19/2020 04:21:47 -78.83, -94.83 76.53 1.63 1
7 12/19/2020 05:12:47 78.84, 72.61 103.47 12/19/2020 05:12:32 78.81, 72.56 103.45 3.29 15
8 12/19/2020 06:03:48 -78.84,-120.14 76.53 12/19/2020 06:03:17 -78.83,-120.23 76.53 2.23 31
9 12/19/2020 06:54:48 78.82, 46.98 103.47 12/19/2020 06:54:03 78.85, 46.93 103.51 3.45 45
10 12/19/2020 07:45:48 -78.86,-145.53 76.53 12/19/2020 07:44:47 -78.83,-145.62 76.52 3.31 61
11 12/19/2020 08:36:48 78.84, 21.60 103.47 12/19/2020 08:35:33 78.86, 21.53 103.52 2.31 75



Historial Predications of SNOs between NOAA-19 and NPP
